Home > Weather > Norfolk > Past weeks

Flag for Canada Weather for the Past 2 Weeks in Norfolk, Ontario, Canada

Now
8 °F

Frigid.


Feels Like: 8 °F
Forecast: -5 / 14 °F
Wind: 2 mph from East

Location: Delhi Cs Ont

Current Time: Feb 14, 2016 at 12:37:11 PM

Latest Report: Feb 14, 2016 at 12:00 PM


Visibility: N/A

Pressure: 30.51 "Hg

Humidity: 57%

Dew point: -4 °F

Location of NorfolkLocation

Historic Weather in Norfolk — Graph

°F

Norfolk Temperature Yesterday

Maximum temperature yesterday: 11 °F (at 12:00 AM)
Minimum temperature yesterday: -7 °F (at 8:00 AM)
Average temperature yesterday: 1 °F

High & Low Weather Summary for the Past Weeks

 TemperatureHumidityPressure
High57 °F (Feb 3, 3:00 PM)100% (Feb 1, 3:00 AM)30.54 "Hg (Feb 1, 3:00 AM)
Low-11 °F (Feb 14, 7:00 AM)49% (Feb 3, 4:00 PM)29.48 "Hg (Feb 9, 2:00 PM)
Average28 °F79%29.95 "Hg
* Reported Jan 30 11:00 AM — Feb 14 11:00 AM, Norfolk, Weather by CustomWeather, © 2016

Note: Actual official high and low records may vary slightly from our data, if they occured in-between our weather recording intervals... More about our weather records

Advertising

Norfolk Weather History for the Previous 24 Hours

 ConditionsComfort  
Time TempWeatherWind HumidityBarometerVisibility
11:00 AM
Sun, Feb 14
4 °FFrigid.2 mph61%30.53 "HgN/A
10:00 AM1 °FFrigid.2 mph63%30.53 "HgN/A
9:00 AM-4 °FFrigid.1 mph70%30.54 "HgN/A
8:00 AM-10 °FExtremely cold.1 mph81%30.54 "HgN/A
7:00 AM-11 °FExtremely cold.No wind88%30.53 "HgN/A
6:00 AM-9 °FFrigid.1 mph84%30.53 "HgN/A
5:00 AM-8 °FFrigid.No wind81%30.52 "HgN/A
4:00 AM-6 °FFrigid.1 mph79%30.52 "HgN/A
3:00 AM-2 °FFrigid.2 mph76%30.50 "HgN/A
2:00 AM0 °FFrigid.1 mph69%30.48 "HgN/A
1:00 AM0 °FFrigid.No wind70%30.49 "HgN/A
12:00 AM0 °FFrigid.1 mph73%30.47 "HgN/A
11:00 PM
Sat, Feb 13
0 °FFrigid.1 mph74%30.47 "HgN/A
10:00 PM1 °FFrigid.2 mph82%30.47 "HgN/A
9:00 PM2 °FFrigid.1 mph85%30.45 "HgN/A
8:00 PM2 °FFrigid.2 mph79%30.44 "HgN/A
7:00 PM3 °FFrigid.5 mph74%30.44 "HgN/A
6:00 PM3 °FFrigid.5 mph76%30.42 "HgN/A
5:00 PM3 °FFrigid.5 mph76%30.41 "HgN/A
4:00 PM3 °FFrigid.6 mph69%30.40 "HgN/A
3:00 PM3 °FFrigid.6 mph63%30.39 "HgN/A
2:00 PM4 °FFrigid.5 mph57%30.39 "HgN/A
1:00 PM0 °FFrigid.8 mph59%30.40 "HgN/A
12:00 PM-1 °FFrigid.6 mph62%30.41 "HgN/A
Weather by CustomWeather, © 2016

See weather overviewHow to use our weather pages